User: anonymous
Location: Unspecified
(0.0000°N, 0.0000°E)
Time: 22:01:36
(UTC+02:00)
Language:

SWIFT - Orbit

View from above orbital plane
View from above orbital plane
View from above satellite
View from above satellite

Ground track
Ground track

The orbit data is extracted from the following two-line orbital elements,

1 28485U 04047A   14263.36219268  .00004678  00000-0  33824-3 0  7766
2 28485 020.5572 276.6836 0012126 222.0055 137.9448 14.99316770537497
Epoch (UTC): 20 September 2014 08:41:33
Eccentricity: 0.0012126
inclination: 20.5572°
perigee height: 560 km
apogee height: 577 km
right ascension of ascending node: 276.6836°
argument of perigee: 222.0055°
revolutions per day: 14.99316770
mean anomaly at epoch: 137.9448°
orbit number at epoch: 53749

The dashed part of the orbit path shows where the satellite is in the earth's shadow,  

DLR